OK2ILA-3 Weather Reports


time (UTC)temp
C
wind
direction
speed
KPH
gust
KPH
rain 1hr
cm
rain 24hr
cm
rain mn
cm
humidity
%
barometer
mb
20260505112750 22 39 3.2 0.0 0.00 0.00 0.00 59 4352.0
20260505111743 22 177 11.3 0.0 0.00 0.00 0.00 79 4352.0
20260505110735 22 135 3.2 0.0 0.00 0.00 0.00 100 8.1
20260505102135 23 187 8.0 0.0 0.00 0.00 0.00 70 5325.0
20260505101659 23 187 8.0 0.0 0.00 0.00 0.00 70 5325.0
20260505100651 22 126 6.4 0.0 0.00 0.00 0.00 36 4173.0
20260505095645 23 160 9.7 0.0 0.00 0.00 0.00 58 4352.0
20260505094640 23 202 3.2 0.0 0.00 0.00 0.00 7 4352.0
20260505093639 -17 264 0.0 0.0 0.00 0.00 0.00
20260505093637 22 264 0.0 0.0 0.00 0.00 0.00 89 4352.0
20260505092631 22 160 4.8 0.0 0.00 0.00 0.00 2 4352.0
20260505091627 23 150 8.0 0.0 0.00 0.00 0.00 98 5811.2
20260505090621 22 149 12.9 0.0 0.00 0.00 0.00 66 1137.6
20260505085617 21 191 11.3 0.0 0.00 0.00 0.00 12 4864.0
20260505084612 20 185 0.0 0.0 0.00 0.00 0.00 2 9.2
20260505083606 21 150 1.6 0.0 0.00 0.00 0.00 98 9.2
20260505082602 22 323 0.0 0.0 0.00 0.00 0.00 58 1123.2
20260505080554 21 151 4.8 0.0 0.00 0.00 0.00 2 1123.2
20260505075548 21 151 8.0 0.0 0.00 0.00 0.00 3 1123.2
20260505074542 20 160 1.6 0.0 0.00 0.00 0.00 53 17.0
20260505073539 20 144 1.6 0.0 0.00 0.00 0.00 3 4352.0
20260505072532 20 70 6.4 0.0 0.00 0.00 0.00 34 4352.0
20260505071524 20 184 4.8 0.0 0.00 0.00 0.00 79 4096.2
20260505070519 20 156 4.8 0.0 0.00 0.00 0.00 57 4096.2
20260505065515 21 156 0.0 0.0 0.00 0.00 0.00 58 4096.2
20260505064510 21 163 1.6 0.0 0.00 0.00 0.00 70 4864.0
20260505063505 21 113 0.0 0.0 0.00 0.00 0.00 3 66.8
20260505062458 20 150 1.6 0.0 0.00 0.00 0.00 2 66.8
20260505061455 18 66 0.0 0.0 0.00 0.00 0.00 98 66.8
20260505060448 18 140 3.2 0.0 0.00 0.00 0.00 2 1868.8
20260505055440 17 187 4.8 0.0 0.00 0.00 0.00 12 1868.8
20260505054435 16 165 6.4 0.0 0.00 0.00 0.00 98 819.2
20260505053431 16 146 3.2 0.0 0.00 0.00 0.00 12 195.2
20260505052427 15 182 4.8 0.0 0.00 0.00 0.00 57 4096.7
20260505051423 15 192 3.2 0.0 0.00 0.00 0.00 43 4096.7
20260505050418 15 164 4.8 0.0 0.00 0.00 0.00 100 822.8
20260505041401 13 157 3.2 0.0 0.00 0.00 0.00 100 179.2
20260505040354 13 170 3.2 0.0 0.00 0.00 0.00 60 179.2
20260505035351 13 187 4.8 0.0 0.00 0.00 0.00 100 179.2
20260505034348 12 161 6.4 0.0 0.00 0.00 0.00 100 179.2
20260505033346 12 163 4.8 0.0 0.00 0.00 0.00 98 179.2
20260505032343 11 171 4.8 0.0 0.00 0.00 0.00 12 179.2
20260505031341 11 161 6.4 0.0 0.00 0.00 0.00 100 179.2
20260505030338 11 167 4.8 0.0 0.00 0.00 0.00 2 52.4
20260505025335 11 163 6.4 0.0 0.00 0.00 0.00 3 12.1
20260505024333 11 167 3.2 0.0 0.00 0.00 0.00 3 12.1
20260505023331 11 146 0.0 0.0 0.00 0.00 0.00 5 12.1
20260505022329 11 161 3.2 0.0 0.00 0.00 0.00 53 12.1
20260505021326 12 185 3.2 0.0 0.00 0.00 0.00 5 375.4
20260505020322 12 160 3.2 0.0 0.00 0.00 0.00 100 375.4
20260505015313 12 180 6.4 0.0 0.00 0.00 0.00 52 4352.0
20260505014308 12 165 0.0 0.0 0.00 0.00 0.00 100 4352.0
20260505013304 12 187 0.0 0.0 0.00 0.00 0.00 3 327.4
20260505012256 12 230 1.6 0.0 0.00 0.00 0.00 55 13.0
20260505011252 12 180 1.6 0.0 0.00 0.00 0.00 19 13.0
20260505010250 12 187 0.0 0.0 0.00 0.00 0.00 13 13.0
20260505005243 12 187 1.6 0.0 0.00 0.00 0.00 2 13.0
20260505004237 12 199 3.2 0.0 0.00 0.00 0.00 2 13.0
20260505003235 12 165 3.2 0.0 0.00 0.00 0.00 37 13.0
20260505002224 12 180 0.0 0.0 0.00 0.00 0.00 54
20260505001213 12 157 1.6 0.0 0.00 0.00 0.00 100 4352.0
20260505000208 12 168 3.2 0.0 0.00 0.00 0.00 55
20260504235200 13 195 1.6 0.0 0.00 0.00 0.00 30
20260504234157 13 171 4.8 0.0 0.00 0.00 0.00 100 0.7
20260504233153 13 136 0.0 0.0 0.00 0.00 0.00 12 0.7
20260504232145 13 180 1.6 0.0 0.00 0.00 0.00 2 0.4
20260504231142 13 189 0.0 0.0 0.00 0.00 0.00 100 0.4
20260504230136 13 127 0.0 0.0 0.00 0.00 0.00 54 0.4
20260504225130 13 105 0.0 0.0 0.00 0.00 0.00 37 3689.9
20260504224126 13 170 0.0 0.0 0.00 10.39 0.00 100 3689.9
20260504223123 14 184 1.6 0.0 0.00 0.00 0.00 25 3689.9
20260504222115 14 184 3.2 0.0 0.00 0.00 0.00 98 3689.9
20260504221110 13 175 0.0 0.0 0.00 0.00 0.00 12 3689.9
20260504220104 14 201 0.0 0.0 0.00 0.00 0.00 4 537.6
20260504215056 13 139 0.0 0.0 0.00 0.00 0.00 96
20260504214053 14 216 0.0 0.0 0.00 0.00 0.00 12
20260504213048 14 170 0.0 0.0 0.00 0.00 0.00 100
20260504212040 14 137 0.0 0.0 0.00 0.00 0.00 12 4352.0
20260504211036 14 188 0.0 0.0 0.00 0.00 0.00 79 4352.0
20260504210030 14 232 3.2 0.0 0.00 0.00 0.00 100 8.1
20260504205025 14 171 0.0 0.0 0.00 0.00 0.00 12 8.1
20260504204020 15 182 0.0 0.0 0.00 0.00 0.00 4
20260504203015 15 181 1.6 0.0 0.00 0.00 0.00 4
20260504202008 15 180 0.0 0.0 0.00 0.00 0.00 79 4096.0
20260504201003 15 174 0.0 0.0 0.00 0.00 0.00 96 4096.0
20260504195958 15 187 0.0 0.0 0.00 0.00 0.00 100 3871.4
20260504194949 15 171 0.0 0.0 0.00 0.00 0.00 100 0.1
20260504193945 15 52 0.0 0.0 0.00 0.00 0.00 77 0.1
20260504192939 15 112 0.0 0.0 0.00 0.00 0.00 100 0.1
20260504191933 16 188 0.0 0.0 0.00 0.00 0.00 31 0.1
20260504190920 16 78 1.6 0.0 0.00 0.00 0.00 8
20260504185913 16 116 0.0 0.0 0.00 0.00 0.00 12
20260504184907 16 189 9.7 0.0 0.00 0.00 0.00 77
20260504183903 17 210 4.8 0.0 0.00 0.00 0.00 4 4352.0
20260504182855 16 187 0.0 0.0 0.00 0.00 0.00 8
20260504181850 17 175 6.4 0.0 0.00 0.00 0.00 96
20260504180846 17 191 0.0 0.0 0.00 0.00 0.00 39
20260504175839 17 126 0.0 0.0 0.00 0.00 0.00 8
20260504174833 17 109 1.6 0.0 0.00 0.00 0.00 5 4352.0
20260504173829 18 229 0.0 0.0 0.00 0.00 0.00 29 4352.0
20260504172823 18 217 4.8 0.0 0.00 0.00 0.00 16 4352.0
20260504171818 18 226 1.6 0.0 0.00 0.00 0.00 77 4352.0
20260504170813 19 247 1.6 0.0 0.00 0.00 0.00 12 4352.0
20260504150706 22 177 1.6 0.0 0.00 0.00 0.00 94 72.4
20260504140629 22 258 8.0 0.0 0.00 0.00 0.00 23
20260504130551 22 194 4.8 0.0 0.00 0.00 0.00 23 0.6